Theta_e
342 343 345 349 350 348 354 352 346 346 345 341 342 346 348 350 347 340 343 341 339 342 345 348 347 350 350 349 349 349 350 350 349 348 348 351 349 348 346 350 350 349 350 349 349 349 349 351 347
339 344 345 350 351 354 356 349 347 345 343 341 345 347 351 353 348 343 344 342 340 342 346 346 346 350 350 349 349 350 351 349 350 349 350 351 351 349 351 350 350 350 350 350 351 350 351 351 348
344 344 347 352 355 356 355 349 348 344 343 347 349 348 350 351 343 343 344 342 341 346 348 347 346 349 349 350 349 351 350 350 350 350 351 351 351 350 351 351 351 351 350 347 347 350 350 351 349
343 343 347 355 359 356 350 348 346 347 347 348 349 353 347 346 344 345 344 342 342 346 347 349 349 350 349 349 349 348 350 350 350 350 351 351 351 349 347 350 349 351 351 344 344 345 345 347 348
343 347 353 357 360 356 347 346 346 348 349 350 348 353 350 346 346 344 344 344 344 343 345 349 349 351 350 351 351 351 351 350 350 352 350 352 351 351 350 350 349 350 352 351 347 346 345 350 351
346 347 356 359 359 356 348 346 349 351 351 350 350 352 349 346 344 346 344 342 343 346 346 345 349 349 349 349 351 350 351 349 350 346 347 349 348 349 347 350 349 348 349 350 349 345 344 343 348
348 352 357 358 359 356 353 348 350 350 350 351 348 353 348 345 347 346 345 347 348 349 350 349 348 350 351 351 351 350 351 347 351 348 351 350 351 347 347 348 348 347 347 348 345 342 343 344 346
353 351 359 358 358 358 353 352 349 348 350 346 346 351 352 346 346 346 347 348 345 345 347 349 351 349 350 349 351 350 347 345 349 347 352 352 349 350 350 347 348 347 346 346 342 341 343 343 344
350 357 361 358 359 356 352 351 347 346 348 346 347 346 346 345 346 346 345 343 345 347 345 348 348 349 349 345 346 346 344 348 349 349 351 351 350 348 347 350 350 348 345 337 338 340 341 342 343
352 354 357 354 354 354 351 353 348 350 348 349 349 347 345 345 346 345 346 346 350 350 348 347 347 346 348 346 339 339 342 344 343 346 348 347 346 346 346 350 347 347 337 337 338 339 339 339 339
352 357 354 351 353 351 353 353 345 349 351 348 349 348 345 345 345 345 346 347 348 348 348 350 347 349 344 344 340 340 341 343 345 342 344 343 342 342 343 343 343 343 343 339 338 338 339 342 344
356 356 353 351 352 353 354 352 350 347 350 347 346 346 345 345 346 345 345 346 346 348 348 349 346 346 345 342 342 344 342 343 341 342 343 342 340 341 343 344 344 342 341 341 341 341 342 343 343
352 355 352 351 350 352 351 354 355 352 348 346 346 345 345 345 345 345 345 345 346 346 347 347 343 344 342 341 341 339 340 338 340 343 343 339 340 341 342 344 341 341 343 344 344 343 344 344 341
353 353 352 350 352 351 353 354 351 350 347 348 346 346 345 345 345 345 345 346 347 347 347 345 341 343 342 342 340 339 340 339 340 342 341 339 340 340 342 341 341 342 344 345 345 344 345 343 340
350 356 353 353 350 350 349 355 354 351 349 349 348 346 346 346 345 344 345 345 347 346 346 344 344 342 340 340 341 340 339 338 336 340 340 341 343 343 341 343 344 344 345 344 344 343 344 343 340
350 351 357 353 351 350 352 357 352 350 350 349 349 347 346 346 345 345 344 345 346 345 346 345 344 344 343 340 340 336 335 336 336 340 341 343 344 342 344 343 345 345 344 347 348 346 345 342 342
342 354 358 356 347 351 353 357 350 349 349 350 349 346 345 344 345 345 344 345 346 345 346 346 345 345 345 342 335 335 337 338 338 342 342 344 345 342 343 343 343 343 345 345 349 346 342 342 341
341 355 357 356 350 348 353 355 351 348 350 349 348 346 344 345 346 346 345 345 346 346 346 346 346 346 345 345 343 340 338 340 342 344 343 345 344 345 344 344 343 344 344 348 349 345 343 342 342
345 353 355 350 347 349 350 355 353 349 349 349 346 341 343 346 345 346 345 345 346 345 345 346 346 346 345 345 344 343 345 344 343 344 346 346 345 345 345 344 342 345 345 349 349 344 345 346 347
347 354 355 353 350 351 351 352 351 350 350 348 349 345 340 344 343 345 345 345 345 345 345 345 345 345 344 344 344 344 345 346 345 346 346 345 346 344 344 345 340 345 346 350 349 346 345 343 347
348 351 353 352 353 351 352 352 353 349 347 347 347 346 343 345 344 343 344 345 345 345 345 345 344 343 343 345 346 345 346 346 348 348 348 346 347 345 345 346 338 344 346 347 349 348 347 345 344
346 346 349 352 355 358 350 358 352 349 351 349 349 346 344 345 343 343 344 344 345 344 345 343 345 344 346 346 345 344 344 345 346 348 347 348 347 346 347 347 339 343 346 346 348 347 348 347 347
337 347 350 350 351 354 355 354 349 348 350 351 348 345 343 341 343 344 344 345 344 344 344 344 343 344 345 346 346 344 344 345 345 345 346 347 348 346 346 346 344 343 346 347 350 347 346 347 346
345 346 345 345 348 352 350 352 352 351 348 349 345 345 345 343 344 344 344 344 344 343 343 344 343 344 344 346 346 346 345 346 346 345 345 347 348 347 345 347 347 344 343 348 349 347 344 347 349
341 339 343 345 349 348 347 353 350 345 344 348 347 345 345 343 345 344 343 344 344 344 344 344 343 345 347 346 346 345 346 346 346 345 346 347 347 347 347 347 348 347 344 349 349 347 346 343 348
342 336 338 345 351 351 350 356 350 341 342 342 345 344 346 344 343 343 342 345 345 345 345 345 344 344 347 346 345 345 346 346 346 345 346 347 348 348 349 349 348 348 345 349 350 349 349 348 349
344 341 335 342 345 347 348 348 343 341 343 344 345 346 347 345 345 343 342 345 345 345 345 345 344 343 344 345 346 346 346 346 346 345 347 348 348 348 348 348 349 349 346 347 350 350 350 350 350
338 335 340 339 349 351 346 350 350 344 345 344 343 345 346 346 346 344 342 344 346 345 345 345 345 343 344 346 346 347 347 346 345 347 346 348 348 346 347 347 348 348 349 348 348 350 351 348 348
326 334 326 331 338 343 346 340 345 346 341 343 342 341 344 346 346 345 343 343 345 346 346 345 346 346 346 347 346 346 346 347 347 346 346 349 348 347 347 348 348 348 348 349 349 349 350 351 349
320 320 321 328 323 335 337 336 342 345 343 342 343 344 344 345 344 344 344 343 343 346 346 346 346 346 346 346 346 345 346 347 348 346 344 348 349 348 347 349 349 349 349 348 349 350 351 350 348
Wind_Speed
5 4 1 0 3 4 3 2 3 8 8 4 12 3 4 4 1 4 15 15 20 17 15 12 11 11 12 12 13 13 13 15 16 16 15 14 15 15 15 16 15 15 16 17 16 14 15 15 16
5 4 2 1 4 4 2 2 9 6 5 16 5 6 4 3 3 8 12 17 20 18 15 13 12 12 12 13 13 13 13 15 15 15 14 13 13 13 13 15 15 14 16 16 16 16 14 12 14
6 5 1 2 2 3 3 2 5 8 15 5 5 5 3 2 6 8 11 24 21 18 15 13 13 12 12 12 13 13 14 14 13 13 13 13 12 12 13 13 14 14 13 15 15 14 14 14 15
2 3 2 4 3 4 3 5 12 8 7 7 9 7 4 7 7 6 23 23 22 19 17 14 13 12 11 11 13 14 14 13 13 13 12 12 11 11 12 12 12 13 11 14 14 15 14 13 15
4 2 4 3 4 3 6 6 7 4 5 6 2 4 4 2 9 24 23 22 21 18 15 14 13 12 11 12 13 13 13 13 13 13 12 12 11 11 11 12 11 11 11 11 12 14 14 11 13
3 2 3 3 3 3 5 7 5 8 6 5 8 6 3 9 21 23 21 20 19 18 14 12 11 12 11 12 12 13 12 12 12 12 11 10 10 11 11 11 11 10 9 10 12 14 16 14 12
4 3 1 2 4 5 4 4 5 5 6 4 5 5 4 3 16 20 19 18 17 16 15 12 11 10 10 11 12 12 12 14 12 11 10 10 10 11 11 11 10 10 9 10 11 13 12 12 8
2 4 2 4 3 1 4 3 3 5 4 4 10 6 6 6 18 19 18 16 14 14 14 14 13 12 11 10 13 12 12 13 13 11 11 10 10 10 10 11 11 10 9 10 9 10 10 10 10
1 3 3 5 5 3 6 2 2 4 8 2 2 7 10 21 22 19 17 13 13 13 14 14 14 13 12 10 11 10 10 12 11 12 11 12 11 10 11 9 10 10 10 9 8 8 8 7 8
3 2 3 6 6 4 4 3 4 5 5 5 11 16 21 22 21 17 14 13 13 14 13 14 13 14 14 12 15 12 11 12 11 11 11 11 10 10 11 10 10 10 11 8 7 6 4 3 4
3 1 5 7 8 14 6 6 3 14 3 6 17 15 17 20 15 13 13 15 15 16 14 13 14 15 16 16 17 15 15 12 11 11 10 9 9 9 8 9 8 8 8 7 4 3 1 2 3
2 2 3 6 8 11 8 5 5 3 1 12 16 20 19 14 14 15 14 18 16 16 14 14 14 15 13 15 14 14 14 13 12 10 8 7 8 8 6 6 5 5 7 7 4 3 3 4 4
3 3 8 2 6 5 1 8 5 3 9 13 15 16 14 12 14 17 17 19 19 19 16 16 16 15 13 14 14 13 13 13 12 9 8 7 7 6 3 4 6 7 7 6 6 6 7 6 3
5 11 7 9 6 4 5 6 4 3 8 16 16 15 13 12 18 17 18 21 21 18 18 17 16 13 14 15 15 14 13 13 10 9 7 6 3 2 1 4 6 6 6 6 5 4 6 7 3
5 6 8 8 1 3 7 7 9 3 3 14 15 13 12 12 16 18 24 23 24 20 20 19 17 15 14 14 13 13 13 11 12 10 9 4 1 3 5 5 5 5 5 5 3 2 2 4 6
4 4 4 3 2 4 0 4 9 9 7 9 16 13 12 11 18 16 23 25 24 23 23 20 18 16 13 11 11 13 14 13 13 10 8 5 4 5 5 5 7 6 5 5 4 1 3 4 4
6 2 3 3 2 4 2 3 4 5 11 12 15 13 12 8 12 16 20 26 26 24 25 22 20 16 15 13 11 11 13 13 13 10 7 6 4 5 3 5 4 4 5 6 7 4 6 5 5
4 3 2 3 2 3 1 4 3 1 9 15 14 12 11 12 16 21 23 26 25 23 23 22 20 19 17 13 11 10 11 11 12 11 10 8 5 2 3 5 3 4 5 5 5 5 5 4 4
6 5 6 1 3 1 2 3 2 5 2 3 4 11 12 15 16 18 22 25 23 23 23 20 20 21 18 17 16 13 12 10 10 9 9 9 6 5 4 4 3 3 4 4 5 7 7 5 3
6 8 4 2 2 3 1 3 4 3 1 1 5 6 15 10 8 17 22 23 26 27 26 23 23 23 21 19 17 13 11 11 11 9 8 11 9 7 4 3 4 4 3 4 6 4 4 6 4
2 6 4 3 4 2 2 5 5 5 5 6 9 6 8 15 15 12 18 23 25 28 28 28 25 24 22 18 16 13 10 6 7 10 10 9 10 7 5 3 5 5 4 3 5 6 2 2 6
4 7 6 7 3 1 2 3 4 6 8 11 11 8 7 15 14 14 20 20 26 30 32 29 27 26 22 20 20 18 16 12 8 11 10 10 10 7 4 3 6 7 5 5 4 4 3 2 3
5 4 7 3 4 3 4 2 4 4 9 13 9 8 8 13 15 14 22 26 27 27 32 29 28 28 25 23 20 19 18 15 12 11 10 9 10 9 6 4 5 6 7 6 4 3 3 4 3
7 6 7 5 1 0 6 5 4 8 12 16 10 11 10 12 15 16 21 18 19 21 29 28 27 27 25 24 21 19 17 16 13 11 10 9 9 9 10 7 6 6 8 8 6 3 4 7 5
5 5 3 2 1 4 4 2 9 7 8 19 18 14 12 13 16 14 15 21 21 24 29 30 29 28 26 25 24 20 18 17 16 13 12 12 12 12 11 11 9 6 8 8 7 5 4 3 2
5 6 5 6 3 2 2 6 6 2 12 10 19 16 13 13 13 17 22 24 26 28 32 31 32 32 29 26 24 22 21 20 18 14 12 13 15 14 11 11 12 9 9 9 7 6 5 5 5
6 4 5 6 2 1 4 6 4 3 7 10 12 15 16 15 16 17 22 26 26 27 33 35 35 34 31 28 24 23 22 21 21 18 14 13 14 14 13 13 12 12 9 10 9 8 7 6 7
5 6 2 2 4 4 4 4 4 9 5 10 12 15 19 21 19 17 21 26 27 29 31 35 35 37 34 30 27 24 22 21 19 18 17 17 16 14 14 14 15 15 14 12 11 11 9 10 9
2 2 1 4 3 4 1 3 5 13 11 14 15 13 17 18 20 19 21 26 26 25 28 34 35 35 36 32 29 26 24 21 19 18 19 18 17 15 14 16 17 18 16 15 14 14 12 10 10
2 2 4 4 4 2 3 3 9 12 6 5 4 7 14 17 17 15 21 20 25 26 27 32 33 34 38 34 32 30 25 23 21 19 18 18 19 18 15 13 14 17 18 16 16 15 16 13 12
Wind_Direction
130 169 87 340 58 70 53 39 120 111 165 177 152 152 134 50 101 169 144 137 147 145 140 132 132 132 129 128 122 123 117 117 116 117 123 117 121 116 112 108 108 109 103 104 103 103 102 94 93
119 164 245 351 80 66 326 348 133 149 140 128 116 103 61 61 60 113 124 147 149 141 138 137 139 136 134 130 128 121 121 121 123 128 126 122 112 112 105 103 99 100 104 103 102 96 95 94 93
124 187 114 80 96 123 139 71 94 117 126 115 115 58 67 73 94 137 146 152 148 145 143 141 141 134 130 129 128 124 123 129 125 124 124 119 113 108 101 94 97 96 98 101 101 98 97 94 92
169 5 45 59 59 356 116 102 118 111 74 74 115 70 76 122 142 162 149 152 149 151 149 144 145 137 134 129 126 128 131 128 126 125 119 113 109 101 99 98 100 97 100 103 97 92 88 90 95
58 61 50 69 25 8 90 80 57 67 73 72 116 94 74 357 130 145 151 154 154 152 153 149 146 142 139 135 134 137 137 135 132 132 129 117 109 102 102 98 99 103 102 98 89 83 85 96 101
43 70 50 65 45 6 70 78 83 69 65 114 83 88 62 137 140 150 156 157 157 153 151 151 151 147 148 144 145 142 145 138 136 128 126 126 117 109 108 100 99 100 101 97 88 81 81 93 95
107 82 56 19 105 58 45 51 92 93 99 70 110 85 111 114 142 158 159 159 158 153 151 155 157 153 153 149 148 146 149 136 129 127 127 126 114 103 105 97 95 97 101 98 98 91 90 87 91
110 100 72 24 107 208 336 8 89 122 70 90 146 143 161 180 160 154 159 162 167 166 165 157 155 162 151 161 150 150 149 136 135 130 127 120 112 105 103 103 97 99 103 106 107 101 95 91 79
24 83 142 168 139 276 323 70 145 98 119 85 127 124 138 150 158 149 156 160 169 170 171 168 164 165 154 148 145 144 144 134 138 128 124 129 128 122 109 103 102 100 105 118 113 104 95 89 72
91 103 213 140 114 180 284 325 166 120 125 70 87 95 128 142 152 149 160 169 178 179 177 172 170 160 149 141 150 148 146 147 149 132 133 131 124 117 112 106 104 98 103 112 110 106 100 76 47
161 223 119 159 140 161 208 276 141 134 132 170 143 139 147 149 155 165 169 178 180 181 180 177 173 168 160 158 164 160 161 157 148 143 140 129 120 116 108 95 89 87 92 109 129 139 165 325 329
158 134 135 165 148 155 183 308 84 111 358 149 149 148 158 160 161 174 175 183 184 184 179 179 177 174 167 160 161 160 162 159 153 146 141 133 129 120 102 81 63 64 81 71 78 72 35 348 313
180 92 52 217 140 82 176 71 28 90 133 136 143 150 164 158 173 176 184 182 180 181 180 181 178 177 172 166 162 161 163 163 160 159 155 149 142 128 93 41 55 54 50 54 48 59 41 30 49
74 83 88 54 65 92 99 94 61 333 137 146 156 161 171 177 175 172 172 182 184 178 179 179 178 179 176 174 168 166 163 166 174 170 164 158 139 141 65 66 47 61 58 45 41 37 32 35 66
153 94 74 32 74 86 101 132 212 235 303 163 166 167 171 187 177 183 177 184 184 183 179 179 179 176 177 174 176 177 176 180 176 169 163 163 153 129 104 73 69 63 48 42 18 343 13 60 98
55 73 92 22 72 140 312 190 201 225 269 199 179 175 175 181 192 188 181 187 186 185 187 184 183 184 181 178 177 187 178 175 171 176 174 164 139 125 91 85 94 67 56 36 37 85 147 129 96
16 133 105 142 67 122 42 132 169 207 268 216 185 179 184 169 191 194 185 190 192 191 188 191 196 197 184 172 162 164 172 173 173 178 176 174 135 114 78 118 103 47 46 37 35 85 125 133 133
172 133 64 161 138 83 84 98 119 327 264 189 181 185 184 181 196 188 189 192 192 194 189 194 198 204 188 180 177 167 170 175 182 179 178 169 163 109 129 147 105 67 53 41 38 90 131 155 169
131 116 115 56 93 48 128 171 43 342 24 81 165 188 193 199 186 181 187 193 189 193 188 195 182 176 178 184 186 191 190 198 195 188 189 198 187 156 146 162 168 108 81 55 55 110 95 102 112
124 134 152 153 174 74 72 285 150 246 273 266 299 218 202 183 167 173 181 187 198 194 190 187 178 175 181 182 188 195 197 204 200 197 196 188 193 189 171 190 187 158 107 87 80 105 81 62 121
172 148 165 166 162 48 17 294 176 181 215 252 251 256 213 190 181 176 179 187 191 199 194 187 183 175 177 188 189 190 184 171 184 185 190 195 194 185 191 175 183 168 154 153 82 75 94 138 72
178 183 150 137 127 329 129 277 264 180 186 213 221 204 221 199 201 178 182 187 193 201 201 193 186 182 183 184 189 191 193 198 195 189 194 196 199 195 205 182 177 179 167 167 116 76 80 166 158
246 182 134 131 129 134 181 248 254 148 222 209 209 203 214 198 185 190 188 195 196 198 204 202 197 192 189 189 192 195 200 207 204 197 199 195 199 206 220 230 200 192 182 178 146 101 108 105 155
129 66 48 46 53 145 207 183 231 195 211 202 188 204 196 192 187 196 194 191 194 196 205 203 197 197 194 192 194 199 199 197 203 202 212 213 211 216 223 227 218 213 200 193 184 136 131 98 99
77 83 47 347 319 232 145 194 256 216 205 200 179 192 192 194 185 179 178 183 189 195 202 205 202 202 201 196 198 201 207 213 213 211 213 218 223 224 224 231 230 222 210 207 212 202 190 166 168
174 152 168 170 190 247 30 233 261 269 191 198 191 174 178 185 187 181 184 185 187 194 203 203 206 202 202 203 204 208 209 214 214 221 226 230 232 229 229 234 232 234 217 214 219 226 228 237 230
200 200 194 104 38 115 214 282 348 298 165 174 183 171 177 180 191 187 185 184 191 190 200 204 207 209 206 208 210 212 212 211 216 224 229 231 227 230 237 228 230 229 226 219 219 225 239 246 244
157 160 108 346 160 239 267 296 278 334 235 197 183 192 188 179 186 188 188 187 191 196 197 205 210 211 213 210 211 215 219 220 218 223 228 221 220 230 230 230 229 231 231 231 229 224 228 234 238
99 231 62 109 126 168 287 281 325 300 263 210 210 211 198 190 186 181 186 188 189 195 195 204 210 213 216 217 217 217 219 220 223 227 233 227 226 230 242 238 237 234 231 235 235 228 226 229 232
158 128 138 131 214 155 149 273 341 339 319 230 178 191 186 186 177 185 179 176 175 192 199 205 211 214 219 220 220 221 222 225 229 235 230 231 238 236 236 240 235 223 226 232 231 238 235 233 237